Location: Góry Miechowskie
(50.3599°N, 20.1803°E)
Time: 21:42:12
(UTC+00:00)

Cosmos 2219 - Pass Details

Date: 21 September 2024
Orbit: 831 x 860 km, 71.1° (Epoch: 13 October)

Event Time Altitude Azimuth Distance (km) Brightness Sun altitude
Rises 01:45:39 0° 144° (SE) 3,396 6.4 -24.6°
Reaches altitude 10° 01:50:00 10° 112° (ESE) 2,476 6.0 -24.0°
Maximum altitude 01:51:43 11° 94° (E) 2,382 6.2 -23.8°
Drops below altitude 10° 01:53:26 10° 76° (ENE) 2,488 6.6 -23.6°
Sets 01:57:49 0° 45° (NE) 3,438 7.7 -23.0°
